sat.trackr.live / text

‹ back to catalog

HULIANWANG DIGUI-62

NORAD 65168 · 2025-174E

PAYLOAD ACTIVE UNKNOWN

§ Identity

Operator
Country
PRC
Launch date
2025-08-13
Launch site
WSC
Launch vehicle
Mass (kg)
RCS (m²)

External: N2YO · Heavens-Above · Gunter

§ Orbital elements

Epoch: 2026-05-25T04:17:25.460160Z

Period
108.73 min
Inclination
86.4901°
Eccentricity
0.0001922
Mean motion
13.24405923 rev/d
Perigee alt
1,166.5 km
Apogee alt
1,169.4 km
Semi-major
7,546.1 km
B*
8.0501e-5
RAAN
259.6404°
Arg perigee
91.1256°
Mean anomaly
269.0098°
Rev number
3,774

§ Raw data

HULIANWANG DIGUI-621 65168U 25174E   26145.17876690  .00000049  00000+0  80501-4 0  99972 65168  86.4901 259.6404 0001922  91.1256 269.0098 13.24405923 37742

JSON: /api/v1/satellites/65168 · /tle

For live sub-satellite position, see the globe view (requires WebGL).

§ Visibility from observer

Set your observer location to see the next 7 days of passes ≥ 10°. The values pass through the URL so the page stays shareable.

No JS? Fill the form by hand. The geolocation button needs JavaScript.